QPF
0.04 0.08 0.15 0.17 0.15 0.16 0.13 0.09 0.10 0.12 0.13 0.09 0.09 0.07 0.06 0.06 0.05 0.05 0.05 0.04 0.03 0.02 0.03 0.02 0.02 0.01 0.02 0.03 0.03 0.02 0.03 0.03 0.02 0.01 0.02 0.03 0.03 0.03 0.02 0.03 0.03 0.04 0.04
0.04 0.06 0.10 0.10 0.09 0.09 0.08 0.06 0.07 0.09 0.09 0.06 0.07 0.09 0.10 0.10 0.10 0.12 0.09 0.07 0.06 0.04 0.03 0.03 0.03 0.03 0.03 0.02 0.02 0.01 0.02 0.02 0.03 0.02 0.03 0.02 0.02 0.02 0.01 0.02 0.03 0.04 0.04
0.04 0.04 0.05 0.05 0.06 0.07 0.06 0.04 0.06 0.08 0.09 0.10 0.11 0.12 0.14 0.13 0.12 0.11 0.09 0.07 0.06 0.06 0.04 0.03 0.03 0.03 0.03 0.02 0.02 0.01 0.02 0.02 0.03 0.02 0.01 0.00 0.00 0.01 0.01 0.01 0.02 0.03 0.02
0.04 0.04 0.04 0.04 0.04 0.06 0.08 0.06 0.07 0.09 0.09 0.10 0.13 0.12 0.08 0.06 0.05 0.05 0.05 0.06 0.06 0.07 0.06 0.05 0.04 0.03 0.03 0.04 0.03 0.02 0.01 0.02 0.03 0.02 0.01 0.00 0.00 0.00 0.01 0.01 0.01 0.02 0.02
0.05 0.04 0.03 0.04 0.05 0.07 0.10 0.10 0.09 0.11 0.11 0.09 0.10 0.17 0.14 0.08 0.06 0.06 0.05 0.04 0.06 0.06 0.06 0.05 0.04 0.03 0.03 0.03 0.02 0.01 0.02 0.02 0.03 0.02 0.01 0.01 0.01 0.00 0.00 0.00 0.00 0.00 0.01
0.02 0.03 0.04 0.05 0.07 0.09 0.11 0.11 0.10 0.10 0.10 0.10 0.08 0.10 0.13 0.08 0.05 0.04 0.03 0.03 0.03 0.03 0.04 0.04 0.02 0.02 0.03 0.02 0.01 0.01 0.02 0.03 0.03 0.02 0.01 0.01 0.01 0.00 0.00 0.00 0.00 0.00 0.00
0.01 0.02 0.03 0.04 0.06 0.07 0.07 0.09 0.09 0.10 0.11 0.12 0.11 0.07 0.06 0.05 0.04 0.03 0.03 0.02 0.02 0.01 0.01 0.02 0.02 0.02 0.02 0.03 0.03 0.02 0.01 0.02 0.02 0.01 0.01 0.01 0.00 0.00 0.00 0.00 0.00 0.00 0.00
0.02 0.02 0.02 0.04 0.06 0.08 0.07 0.08 0.08 0.08 0.09 0.10 0.11 0.07 0.05 0.04 0.03 0.03 0.03 0.02 0.01 0.01 0.01 0.02 0.02 0.01 0.01 0.02 0.02 0.02 0.02 0.01 0.01 0.01 0.01 0.01 0.00 0.00 0.00 0.00 0.00 0.00 0.00
0.03 0.04 0.04 0.06 0.06 0.06 0.06 0.06 0.07 0.08 0.07 0.08 0.10 0.08 0.05 0.04 0.04 0.04 0.04 0.03 0.02 0.02 0.01 0.02 0.02 0.03 0.02 0.03 0.02 0.03 0.03 0.03 0.02 0.01 0.01 0.01 0.00 0.00 0.00 0.00 0.00 0.00 0.00
0.03 0.05 0.06 0.07 0.06 0.07 0.07 0.07 0.07 0.09 0.07 0.07 0.09 0.08 0.04 0.04 0.04 0.05 0.05 0.03 0.03 0.04 0.02 0.02 0.03 0.03 0.03 0.03 0.03 0.03 0.03 0.04 0.03 0.02 0.01 0.01 0.00 0.00 0.00 0.00 0.00 0.00 0.00
0.02 0.04 0.07 0.09 0.07 0.08 0.10 0.09 0.10 0.10 0.07 0.07 0.08 0.08 0.05 0.04 0.05 0.05 0.04 0.03 0.04 0.04 0.04 0.03 0.03 0.04 0.04 0.04 0.03 0.03 0.02 0.02 0.01 0.01 0.01 0.01 0.00 0.00 0.00 0.00 0.00 0.00 0.00
0.02 0.04 0.06 0.10 0.09 0.08 0.11 0.11 0.12 0.13 0.08 0.07 0.08 0.08 0.07 0.05 0.04 0.05 0.05 0.04 0.04 0.03 0.03 0.03 0.04 0.03 0.03 0.03 0.03 0.03 0.02 0.01 0.01 0.01 0.01 0.01 0.01 0.00 0.00 0.00 0.00 0.01 0.00
0.02 0.04 0.07 0.08 0.08 0.06 0.07 0.08 0.09 0.10 0.11 0.09 0.07 0.07 0.06 0.05 0.04 0.06 0.06 0.04 0.04 0.04 0.05 0.05 0.04 0.03 0.03 0.03 0.02 0.02 0.02 0.02 0.01 0.01 0.01 0.01 0.01 0.00 0.00 0.00 0.00 0.00 0.01
0.02 0.05 0.06 0.05 0.05 0.05 0.05 0.04 0.07 0.06 0.07 0.09 0.07 0.05 0.05 0.07 0.07 0.07 0.07 0.05 0.04 0.06 0.06 0.05 0.05 0.05 0.04 0.03 0.03 0.03 0.02 0.02 0.02 0.02 0.02 0.02 0.01 0.01 0.00 0.00 0.00 0.00 0.01
0.03 0.05 0.07 0.05 0.04 0.04 0.04 0.04 0.06 0.07 0.07 0.07 0.06 0.05 0.08 0.10 0.09 0.06 0.05 0.07 0.07 0.07 0.08 0.07 0.07 0.06 0.06 0.05 0.04 0.03 0.03 0.02 0.02 0.02 0.02 0.02 0.02 0.01 0.01 0.01 0.00 0.01 0.01
0.03 0.04 0.07 0.07 0.06 0.05 0.04 0.03 0.05 0.07 0.06 0.06 0.05 0.06 0.07 0.08 0.07 0.07 0.08 0.07 0.07 0.07 0.08 0.07 0.06 0.05 0.04 0.04 0.04 0.04 0.03 0.02 0.02 0.02 0.02 0.02 0.02 0.02 0.01 0.01 0.01 0.01 0.01
0.03 0.05 0.06 0.07 0.07 0.06 0.06 0.05 0.04 0.05 0.07 0.06 0.05 0.05 0.05 0.06 0.06 0.08 0.07 0.05 0.04 0.04 0.04 0.04 0.03 0.03 0.03 0.03 0.04 0.03 0.03 0.03 0.02 0.02 0.02 0.02 0.03 0.03 0.02 0.01 0.01 0.01 0.01
0.02 0.04 0.05 0.05 0.07 0.07 0.08 0.09 0.07 0.06 0.05 0.05 0.04 0.04 0.04 0.05 0.04 0.04 0.04 0.04 0.03 0.03 0.02 0.03 0.02 0.03 0.03 0.02 0.02 0.03 0.03 0.03 0.02 0.02 0.02 0.02 0.03 0.03 0.03 0.02 0.02 0.02 0.01
0.01 0.01 0.03 0.04 0.06 0.10 0.12 0.14 0.14 0.08 0.04 0.03 0.04 0.04 0.04 0.04 0.05 0.06 0.05 0.04 0.04 0.04 0.03 0.02 0.02 0.02 0.03 0.03 0.04 0.03 0.03 0.03 0.03 0.03 0.02 0.01 0.02 0.02 0.01 0.01 0.01 0.01 0.01
0.02 0.02 0.03 0.05 0.04 0.06 0.09 0.09 0.11 0.12 0.06 0.03 0.04 0.05 0.04 0.03 0.04 0.04 0.05 0.03 0.03 0.03 0.03 0.03 0.03 0.03 0.02 0.02 0.03 0.03 0.03 0.04 0.04 0.03 0.03 0.02 0.01 0.01 0.01 0.00 0.00 0.01 0.01
0.03 0.04 0.04 0.04 0.04 0.04 0.04 0.04 0.05 0.07 0.07 0.06 0.04 0.04 0.03 0.03 0.02 0.02 0.02 0.02 0.02 0.02 0.03 0.04 0.04 0.04 0.04 0.04 0.04 0.04 0.03 0.03 0.04 0.04 0.03 0.02 0.01 0.01 0.01 0.01 0.01 0.01 0.00
0.06 0.05 0.05 0.04 0.04 0.03 0.03 0.03 0.03 0.04 0.06 0.05 0.02 0.02 0.04 0.03 0.03 0.02 0.02 0.02 0.02 0.02 0.03 0.05 0.06 0.07 0.06 0.06 0.05 0.05 0.04 0.03 0.03 0.03 0.03 0.02 0.02 0.01 0.01 0.01 0.01 0.00 0.00
0.09 0.06 0.07 0.06 0.03 0.03 0.03 0.03 0.04 0.04 0.04 0.02 0.01 0.02 0.04 0.06 0.07 0.06 0.05 0.04 0.04 0.04 0.03 0.04 0.04 0.05 0.06 0.07 0.07 0.06 0.05 0.05 0.03 0.02 0.02 0.02 0.02 0.01 0.01 0.01 0.01 0.00 0.00
0.10 0.08 0.08 0.06 0.04 0.05 0.07 0.08 0.08 0.08 0.06 0.04 0.05 0.04 0.04 0.04 0.07 0.10 0.10 0.08 0.06 0.05 0.05 0.05 0.06 0.06 0.06 0.06 0.05 0.04 0.04 0.03 0.02 0.01 0.01 0.01 0.01 0.01 0.00 0.01 0.01 0.01 0.01
0.06 0.07 0.06 0.06 0.06 0.06 0.07 0.09 0.09 0.08 0.06 0.03 0.03 0.04 0.04 0.04 0.06 0.07 0.10 0.11 0.10 0.09 0.07 0.07 0.08 0.08 0.06 0.06 0.05 0.05 0.05 0.04 0.03 0.02 0.02 0.01 0.01 0.01 0.01 0.01 0.01 0.01 0.01
0.04 0.05 0.05 0.05 0.05 0.05 0.06 0.07 0.09 0.09 0.07 0.05 0.04 0.04 0.04 0.04 0.05 0.05 0.07 0.10 0.09 0.10 0.09 0.08 0.09 0.08 0.07 0.07 0.06 0.07 0.08 0.08 0.07 0.04 0.02 0.02 0.01 0.01 0.01 0.01 0.01 0.01 0.01
MSLP
1009.76 1009.83 1009.79 1009.65 1009.44 1009.25 1009.16 1009.23 1009.52 1010.04 1010.75 1011.57 1012.44 1013.26 1013.96 1014.51 1014.89 1015.15 1015.34 1015.51 1015.71 1015.98 1016.33 1016.74 1017.18 1017.61 1018.01 1018.35 1018.63 1018.84 1019.01 1019.15 1019.28 1019.38 1019.47 1019.53 1019.54 1019.52 1019.47 1019.39 1019.33 1019.29 1019.30
1009.61 1009.73 1009.75 1009.64 1009.46 1009.27 1009.17 1009.23 1009.52 1010.04 1010.77 1011.64 1012.54 1013.39 1014.12 1014.66 1015.03 1015.26 1015.40 1015.53 1015.70 1015.96 1016.30 1016.73 1017.19 1017.65 1018.07 1018.43 1018.70 1018.92 1019.07 1019.21 1019.33 1019.44 1019.55 1019.64 1019.69 1019.70 1019.67 1019.60 1019.52 1019.45 1019.43
1009.29 1009.52 1009.62 1009.60 1009.49 1009.34 1009.26 1009.33 1009.63 1010.16 1010.90 1011.78 1012.70 1013.57 1014.29 1014.84 1015.19 1015.40 1015.51 1015.61 1015.76 1016.00 1016.34 1016.76 1017.23 1017.70 1018.12 1018.47 1018.73 1018.92 1019.07 1019.19 1019.31 1019.45 1019.59 1019.72 1019.82 1019.88 1019.89 1019.84 1019.77 1019.69 1019.63
1008.84 1009.19 1009.42 1009.52 1009.51 1009.44 1009.41 1009.51 1009.81 1010.34 1011.06 1011.93 1012.84 1013.70 1014.43 1014.97 1015.31 1015.51 1015.61 1015.70 1015.84 1016.07 1016.41 1016.83 1017.29 1017.74 1018.15 1018.47 1018.72 1018.89 1019.01 1019.13 1019.25 1019.41 1019.58 1019.77 1019.93 1020.04 1020.09 1020.08 1020.02 1019.93 1019.85
1008.31 1008.78 1009.16 1009.40 1009.50 1009.53 1009.56 1009.69 1009.99 1010.50 1011.20 1012.03 1012.91 1013.74 1014.45 1014.98 1015.33 1015.53 1015.65 1015.75 1015.89 1016.13 1016.46 1016.87 1017.33 1017.76 1018.14 1018.45 1018.66 1018.81 1018.91 1019.02 1019.15 1019.32 1019.53 1019.76 1019.97 1020.13 1020.24 1020.26 1020.22 1020.14 1020.04
1007.76 1008.34 1008.86 1009.23 1009.46 1009.59 1009.68 1009.84 1010.13 1010.61 1011.25 1012.02 1012.84 1013.63 1014.31 1014.83 1015.19 1015.42 1015.56 1015.69 1015.87 1016.12 1016.46 1016.88 1017.31 1017.73 1018.09 1018.37 1018.56 1018.69 1018.78 1018.87 1019.01 1019.19 1019.41 1019.67 1019.92 1020.12 1020.26 1020.33 1020.32 1020.25 1020.15
1007.22 1007.91 1008.54 1009.04 1009.38 1009.59 1009.75 1009.92 1010.20 1010.62 1011.20 1011.90 1012.65 1013.38 1014.02 1014.54 1014.91 1015.16 1015.35 1015.53 1015.74 1016.02 1016.38 1016.80 1017.24 1017.65 1017.99 1018.25 1018.43 1018.54 1018.62 1018.70 1018.83 1019.01 1019.24 1019.50 1019.76 1019.99 1020.16 1020.25 1020.27 1020.23 1020.14
1006.75 1007.51 1008.23 1008.82 1009.25 1009.54 1009.73 1009.92 1010.18 1010.56 1011.06 1011.68 1012.35 1013.02 1013.63 1014.13 1014.51 1014.80 1015.03 1015.25 1015.52 1015.84 1016.22 1016.66 1017.10 1017.50 1017.85 1018.10 1018.27 1018.38 1018.45 1018.53 1018.65 1018.81 1019.02 1019.27 1019.53 1019.76 1019.94 1020.05 1020.10 1020.08 1020.03
1006.34 1007.14 1007.92 1008.58 1009.07 1009.41 1009.65 1009.85 1010.09 1010.42 1010.87 1011.41 1012.01 1012.62 1013.19 1013.67 1014.06 1014.38 1014.66 1014.93 1015.23 1015.59 1016.01 1016.46 1016.91 1017.33 1017.68 1017.94 1018.12 1018.24 1018.31 1018.39 1018.49 1018.63 1018.81 1019.03 1019.26 1019.47 1019.65 1019.77 1019.84 1019.85 1019.84
1006.02 1006.83 1007.62 1008.31 1008.84 1009.21 1009.48 1009.70 1009.94 1010.25 1010.65 1011.14 1011.69 1012.25 1012.78 1013.25 1013.64 1013.98 1014.29 1014.60 1014.94 1015.33 1015.77 1016.24 1016.70 1017.14 1017.50 1017.79 1017.99 1018.13 1018.22 1018.29 1018.38 1018.49 1018.64 1018.82 1019.00 1019.19 1019.34 1019.46 1019.55 1019.60 1019.62
1005.77 1006.55 1007.33 1008.01 1008.55 1008.95 1009.24 1009.48 1009.74 1010.05 1010.44 1010.90 1011.42 1011.94 1012.45 1012.90 1013.29 1013.64 1013.97 1014.30 1014.66 1015.07 1015.52 1016.00 1016.49 1016.93 1017.33 1017.64 1017.88 1018.04 1018.16 1018.24 1018.33 1018.42 1018.53 1018.66 1018.81 1018.95 1019.08 1019.19 1019.29 1019.36 1019.42
1005.60 1006.33 1007.05 1007.69 1008.22 1008.62 1008.93 1009.21 1009.50 1009.83 1010.23 1010.70 1011.20 1011.70 1012.19 1012.62 1013.01 1013.36 1013.69 1014.03 1014.39 1014.81 1015.26 1015.75 1016.24 1016.70 1017.12 1017.46 1017.74 1017.94 1018.09 1018.19 1018.28 1018.37 1018.46 1018.55 1018.66 1018.76 1018.86 1018.96 1019.06 1019.16 1019.25
1005.51 1006.16 1006.80 1007.38 1007.86 1008.25 1008.58 1008.88 1009.21 1009.58 1010.01 1010.49 1010.99 1011.49 1011.96 1012.38 1012.76 1013.09 1013.41 1013.74 1014.10 1014.51 1014.95 1015.43 1015.92 1016.39 1016.82 1017.20 1017.50 1017.74 1017.93 1018.06 1018.17 1018.26 1018.34 1018.42 1018.50 1018.57 1018.65 1018.74 1018.84 1018.95 1019.06
1005.52 1006.07 1006.60 1007.09 1007.50 1007.86 1008.18 1008.51 1008.87 1009.28 1009.74 1010.24 1010.75 1011.24 1011.69 1012.10 1012.45 1012.77 1013.08 1013.39 1013.73 1014.12 1014.54 1015.01 1015.48 1015.94 1016.38 1016.77 1017.10 1017.37 1017.59 1017.76 1017.90 1018.01 1018.10 1018.18 1018.25 1018.32 1018.39 1018.47 1018.56 1018.68 1018.81
1005.63 1006.07 1006.49 1006.86 1007.18 1007.49 1007.79 1008.12 1008.50 1008.93 1009.41 1009.91 1010.41 1010.89 1011.33 1011.71 1012.04 1012.33 1012.61 1012.90 1013.22 1013.58 1013.98 1014.42 1014.87 1015.31 1015.73 1016.12 1016.46 1016.75 1017.00 1017.20 1017.37 1017.52 1017.64 1017.74 1017.83 1017.90 1017.98 1018.07 1018.17 1018.29 1018.43
1005.88 1006.20 1006.48 1006.73 1006.96 1007.19 1007.44 1007.75 1008.11 1008.54 1009.01 1009.50 1009.98 1010.43 1010.83 1011.17 1011.47 1011.73 1011.99 1012.26 1012.55 1012.89 1013.26 1013.66 1014.07 1014.49 1014.88 1015.25 1015.58 1015.87 1016.13 1016.36 1016.57 1016.75 1016.91 1017.06 1017.18 1017.29 1017.39 1017.49 1017.60 1017.73 1017.87
1006.26 1006.46 1006.61 1006.74 1006.87 1007.01 1007.20 1007.45 1007.77 1008.16 1008.58 1009.03 1009.46 1009.85 1010.20 1010.50 1010.75 1010.99 1011.21 1011.46 1011.74 1012.05 1012.39 1012.75 1013.13 1013.50 1013.85 1014.18 1014.49 1014.77 1015.03 1015.28 1015.52 1015.74 1015.95 1016.14 1016.32 1016.48 1016.62 1016.75 1016.88 1017.01 1017.16
1006.77 1006.87 1006.92 1006.94 1006.95 1007.00 1007.11 1007.29 1007.54 1007.85 1008.20 1008.56 1008.91 1009.22 1009.50 1009.73 1009.94 1010.13 1010.33 1010.56 1010.82 1011.11 1011.43 1011.76 1012.10 1012.42 1012.73 1013.02 1013.29 1013.54 1013.79 1014.05 1014.30 1014.57 1014.83 1015.08 1015.31 1015.53 1015.72 1015.89 1016.04 1016.19 1016.33
1007.40 1007.43 1007.40 1007.32 1007.25 1007.21 1007.23 1007.31 1007.47 1007.68 1007.93 1008.18 1008.41 1008.63 1008.81 1008.96 1009.10 1009.25 1009.42 1009.62 1009.86 1010.14 1010.44 1010.75 1011.05 1011.34 1011.60 1011.85 1012.08 1012.31 1012.54 1012.79 1013.07 1013.36 1013.66 1013.97 1014.26 1014.54 1014.78 1014.99 1015.17 1015.33 1015.47
1008.15 1008.13 1008.04 1007.90 1007.76 1007.64 1007.57 1007.56 1007.61 1007.70 1007.82 1007.94 1008.04 1008.13 1008.19 1008.25 1008.31 1008.39 1008.52 1008.69 1008.91 1009.17 1009.46 1009.75 1010.04 1010.30 1010.53 1010.75 1010.95 1011.15 1011.37 1011.62 1011.91 1012.22 1012.56 1012.91 1013.26 1013.58 1013.87 1014.12 1014.32 1014.49 1014.62
1009.00 1008.95 1008.82 1008.64 1008.45 1008.27 1008.12 1008.02 1007.96 1007.92 1007.90 1007.87 1007.83 1007.77 1007.70 1007.63 1007.59 1007.60 1007.66 1007.79 1007.98 1008.22 1008.49 1008.77 1009.05 1009.29 1009.52 1009.72 1009.91 1010.11 1010.32 1010.57 1010.87 1011.20 1011.56 1011.95 1012.33 1012.69 1013.01 1013.29 1013.52 1013.69 1013.82
1009.92 1009.86 1009.71 1009.51 1009.28 1009.05 1008.84 1008.65 1008.48 1008.32 1008.15 1007.97 1007.77 1007.55 1007.32 1007.12 1006.96 1006.85 1006.83 1006.89 1007.03 1007.23 1007.48 1007.75 1008.02 1008.27 1008.51 1008.72 1008.92 1009.12 1009.35 1009.61 1009.91 1010.25 1010.63 1011.03 1011.43 1011.82 1012.16 1012.46 1012.70 1012.89 1013.02
1010.89 1010.82 1010.67 1010.45 1010.20 1009.93 1009.66 1009.39 1009.12 1008.83 1008.52 1008.19 1007.82 1007.43 1007.04 1006.68 1006.37 1006.13 1005.99 1005.95 1006.01 1006.16 1006.37 1006.61 1006.88 1007.15 1007.40 1007.63 1007.86 1008.09 1008.34 1008.62 1008.94 1009.29 1009.67 1010.08 1010.48 1010.87 1011.22 1011.53 1011.79 1011.98 1012.13
1011.88 1011.81 1011.65 1011.42 1011.14 1010.84 1010.51 1010.17 1009.81 1009.40 1008.96 1008.47 1007.94 1007.38 1006.82 1006.28 1005.80 1005.40 1005.12 1004.95 1004.90 1004.96 1005.10 1005.32 1005.57 1005.84 1006.11 1006.38 1006.65 1006.92 1007.20 1007.50 1007.83 1008.19 1008.57 1008.96 1009.36 1009.74 1010.09 1010.40 1010.67 1010.89 1011.07
1012.87 1012.78 1012.61 1012.36 1012.06 1011.72 1011.35 1010.94 1010.49 1009.98 1009.41 1008.78 1008.10 1007.37 1006.64 1005.92 1005.26 1004.69 1004.23 1003.90 1003.71 1003.66 1003.71 1003.87 1004.09 1004.35 1004.64 1004.94 1005.24 1005.55 1005.86 1006.19 1006.53 1006.88 1007.25 1007.62 1007.99 1008.35 1008.69 1009.01 1009.29 1009.55 1009.77
1013.85 1013.73 1013.53 1013.25 1012.93 1012.55 1012.13 1011.66 1011.13 1010.54 1009.86 1009.11 1008.29 1007.42 1006.52 1005.64 1004.80 1004.05 1003.41 1002.92 1002.57 1002.38 1002.32 1002.39 1002.55 1002.78 1003.06 1003.38 1003.70 1004.03 1004.37 1004.71 1005.04 1005.38 1005.73 1006.07 1006.41 1006.74 1007.07 1007.39 1007.69 1007.99 1008.28
Thickness
5767 5765 5762 5760 5756 5753 5750 5748 5746 5744 5741 5738 5735 5732 5730 5730 5730 5730 5730 5730 5729 5728 5728 5727 5726 5725 5725 5724 5723 5722 5720 5718 5718 5716 5714 5715 5716 5716 5716 5716 5715 5715 5714
5761 5761 5759 5757 5755 5752 5750 5747 5745 5743 5741 5739 5737 5734 5731 5729 5729 5728 5728 5728 5727 5727 5726 5725 5724 5724 5723 5722 5721 5720 5718 5716 5716 5713 5709 5707 5708 5711 5714 5713 5713 5712 5712
5763 5761 5759 5757 5754 5752 5750 5749 5746 5743 5740 5738 5735 5731 5728 5726 5725 5724 5725 5725 5725 5725 5725 5724 5723 5722 5722 5721 5720 5720 5718 5714 5713 5713 5710 5704 5702 5705 5708 5710 5710 5710 5710
5765 5762 5761 5758 5756 5754 5751 5748 5745 5742 5740 5737 5734 5731 5727 5724 5725 5724 5724 5724 5723 5723 5722 5722 5722 5721 5720 5720 5719 5719 5718 5715 5711 5710 5711 5710 5708 5704 5702 5705 5707 5708 5708
5766 5764 5763 5761 5759 5756 5751 5748 5744 5740 5739 5737 5734 5731 5728 5726 5724 5723 5722 5721 5721 5720 5720 5720 5720 5719 5719 5718 5718 5717 5717 5715 5713 5711 5709 5707 5706 5706 5703 5700 5702 5704 5705
5767 5765 5763 5760 5757 5755 5750 5746 5742 5739 5738 5736 5734 5731 5728 5725 5723 5721 5720 5719 5718 5718 5718 5718 5718 5718 5717 5717 5717 5716 5715 5714 5713 5712 5711 5709 5707 5704 5703 5700 5699 5699 5702
5766 5764 5761 5758 5755 5752 5749 5745 5741 5739 5737 5735 5732 5731 5728 5726 5724 5722 5720 5718 5717 5716 5716 5717 5717 5716 5716 5716 5715 5714 5714 5713 5712 5711 5710 5710 5709 5708 5705 5702 5699 5698 5699
5765 5764 5762 5759 5756 5752 5749 5745 5741 5739 5737 5734 5731 5729 5728 5725 5724 5723 5721 5720 5718 5718 5717 5716 5716 5715 5715 5714 5713 5713 5712 5712 5712 5711 5710 5709 5709 5708 5707 5704 5700 5696 5695
5763 5762 5760 5758 5756 5753 5750 5746 5742 5739 5736 5734 5731 5728 5727 5725 5724 5722 5721 5720 5719 5718 5716 5715 5714 5714 5713 5713 5712 5711 5711 5711 5710 5710 5709 5708 5708 5707 5706 5705 5704 5699 5693
5760 5760 5760 5758 5757 5754 5751 5747 5743 5739 5736 5734 5732 5729 5727 5726 5724 5721 5720 5719 5718 5718 5716 5714 5713 5712 5712 5711 5710 5710 5709 5709 5708 5708 5707 5707 5706 5706 5705 5704 5702 5701 5698
5757 5757 5758 5758 5756 5753 5749 5745 5741 5738 5735 5734 5731 5729 5727 5725 5723 5721 5719 5718 5717 5716 5715 5713 5712 5711 5710 5710 5709 5708 5708 5707 5706 5706 5706 5705 5704 5703 5702 5702 5700 5699 5697
5755 5755 5755 5754 5752 5750 5747 5744 5741 5738 5736 5733 5730 5729 5727 5725 5722 5720 5719 5718 5716 5715 5714 5712 5711 5710 5709 5708 5708 5707 5706 5705 5704 5704 5704 5703 5702 5701 5700 5699 5698 5697 5696
5753 5752 5751 5749 5748 5747 5745 5743 5740 5737 5735 5732 5729 5727 5726 5724 5722 5720 5719 5717 5715 5714 5713 5712 5710 5709 5708 5707 5707 5706 5705 5704 5704 5703 5702 5701 5700 5699 5698 5697 5696 5695 5694
5749 5748 5747 5745 5744 5743 5743 5741 5738 5736 5734 5731 5729 5726 5725 5724 5722 5720 5718 5716 5715 5714 5712 5711 5710 5709 5708 5707 5705 5704 5704 5703 5702 5701 5700 5699 5698 5698 5696 5695 5694 5693 5691
5744 5745 5744 5743 5741 5740 5739 5739 5737 5734 5733 5730 5727 5726 5725 5723 5721 5719 5717 5715 5714 5714 5712 5711 5709 5708 5707 5706 5705 5703 5702 5701 5700 5699 5698 5698 5697 5696 5695 5694 5692 5691 5688
5742 5743 5742 5741 5740 5739 5738 5736 5734 5733 5731 5728 5726 5725 5723 5721 5719 5718 5716 5714 5713 5712 5710 5709 5708 5707 5707 5707 5705 5703 5701 5700 5698 5697 5696 5696 5695 5695 5694 5693 5692 5690 5687
5740 5740 5740 5739 5739 5738 5737 5735 5733 5731 5729 5727 5725 5724 5722 5719 5718 5717 5714 5712 5711 5710 5708 5708 5707 5706 5706 5705 5703 5702 5700 5698 5697 5695 5694 5694 5695 5693 5692 5691 5689 5687 5686
5738 5739 5739 5737 5737 5736 5736 5734 5731 5729 5727 5724 5723 5722 5720 5718 5716 5715 5713 5712 5710 5709 5707 5706 5705 5704 5704 5703 5701 5699 5697 5696 5695 5694 5693 5692 5691 5691 5689 5687 5686 5684 5683
5738 5739 5739 5737 5735 5734 5733 5732 5729 5727 5724 5723 5721 5721 5719 5717 5715 5713 5712 5711 5709 5708 5706 5705 5704 5702 5702 5701 5699 5697 5694 5693 5692 5692 5691 5690 5688 5688 5686 5683 5681 5680 5679
5736 5736 5736 5735 5733 5732 5732 5730 5727 5724 5723 5722 5722 5720 5719 5716 5715 5713 5712 5711 5709 5707 5706 5704 5703 5701 5700 5699 5697 5694 5692 5690 5690 5689 5688 5687 5685 5684 5682 5680 5677 5675 5675
5731 5732 5731 5730 5729 5730 5729 5727 5725 5723 5723 5722 5720 5718 5717 5716 5714 5712 5711 5709 5707 5705 5703 5702 5701 5699 5699 5697 5695 5693 5691 5690 5688 5687 5685 5684 5682 5680 5677 5675 5674 5673 5671
5723 5724 5725 5724 5725 5726 5725 5723 5721 5722 5721 5719 5717 5715 5714 5713 5712 5709 5708 5706 5704 5701 5700 5698 5697 5697 5696 5695 5694 5691 5689 5688 5686 5684 5683 5681 5679 5676 5673 5671 5670 5668 5665
5716 5718 5718 5717 5718 5719 5720 5718 5718 5718 5717 5716 5714 5712 5711 5709 5709 5707 5705 5703 5701 5699 5697 5696 5694 5694 5693 5692 5690 5689 5687 5684 5682 5682 5680 5677 5675 5672 5669 5667 5664 5661 5658
5708 5710 5710 5711 5711 5713 5714 5714 5714 5714 5713 5711 5709 5708 5706 5705 5704 5703 5702 5700 5698 5696 5695 5693 5692 5691 5690 5689 5687 5685 5683 5680 5677 5675 5673 5671 5668 5666 5663 5660 5657 5654 5652
5700 5702 5703 5704 5705 5706 5707 5708 5709 5710 5708 5707 5705 5704 5703 5701 5699 5698 5696 5696 5695 5695 5693 5691 5690 5688 5686 5686 5685 5682 5679 5677 5673 5669 5665 5663 5661 5659 5656 5653 5649 5647 5643
5692 5694 5695 5697 5699 5700 5700 5702 5703 5704 5703 5701 5700 5699 5698 5696 5694 5691 5688 5686 5687 5686 5686 5686 5685 5683 5682 5680 5678 5675 5673 5669 5666 5662 5659 5656 5653 5651 5648 5645 5641 5638 5635